Meteo18 Weather Cam more information Meteo18 Weather Cam


Thunder radar more information blitzortung!


Rain radar more information rain snow radar



Select another period ( hide this area )

Units Period Custom range Directly to
Metric English Both
Daily Weekly Monthly Yearly
use both date-selectors for a custom range
previous Day
With this date

WeatherUnderground graphs for this period ( click here )


Daily Summary for Saturday 17 August 2019
Time Temp. ( °C ) Dew pt. ( °C ) Wind ( km/h ) from Gust ( km/h ) Pressure ( hPa ) Humid.( % ) Rainrate ( cm )
High26,2 18,7 25,9 SW ( 944/2544 ) 32,2 1014,4 85 -
Average20,4 15,1 9,2 SW #94/277 14,8 1013,2 72 -
Low15,9 11,4 -   0,0 1011,4 57 -
Daily Tabular details for Saturday 17 August 2019
Time Temp. ( °C ) Dew pt. ( °C ) Wind ( km/h ) from Gust ( km/h ) Pressure ( hPa ) Humid.( % ) Rainrate ( cm )
00:00 18,4 12,2   Calm   1014,4 67 -
00:06 18,3 11,8   Calm   1014,4 66 -
00:10 18,1 11,9   Calm   1014,4 67 -
00:16 17,7 11,9   Calm   1014,4 69 -
00:20 17,6 12,1   Calm   1014,1 70 -
00:26 17,6 11,8   Calm   1014,1 69 -
00:30 17,5 11,7   Calm   1014,1 69 -
00:36 17,3 11,8   Calm   1014,1 70 -
00:40 17,2 11,9   Calm   1014,1 71 -
00:46 17,0 11,7   Calm   1014,4 71 -
00:50 16,9 11,8   Calm   1014,4 72 -
00:56 16,7 11,8   Calm   1014,4 73 -
01:00 16,7 12,0   Calm   1014,4 74 -
01:06 16,7 12,0   Calm   1014,4 74 -
01:10 16,8 11,9   Calm   1014,4 73 -
01:16 16,9 12,0   Calm 1,6 1014,1 73 -
01:20 16,9 12,0   Calm   1014,1 73 -
01:27 16,8 11,7   Calm   1014,4 72 -
01:31 16,6 11,7   Calm   1014,4 73 -
01:35 16,4 11,5   Calm   1014,4 73 -
01:41 16,3 11,5   Calm 1,6 1014,1 73 -
01:45 16,2 11,4   Calm   1014,4 73 -
01:51 16,1 11,5   Calm   1014,4 74 -
01:55 16,0 11,4   Calm   1014,1 74 -
02:01 15,9 11,5   Calm   1014,1 75 -
02:05 15,9 11,5   Calm   1014,1 75 -
02:11 15,9 11,5   Calm   1014,1 75 -
02:15 15,9 11,5   Calm   1014,1 75 -
02:21 15,9 11,5   Calm   1014,4 75 -
02:25 16,0 11,8   Calm   1014,4 76 -
02:31 16,2 12,0   Calm   1014,4 76 -
02:35 16,4 12,0   Calm 1,6 1014,4 75 -
02:41 16,6 11,9 3,2 SE 4,8 1014,1 74 -
02:45 16,7 12,0 1,4 ESE 1,6 1014,1 74 -
02:51 16,7 12,0   Calm 1,6 1014,1 74 -
02:55 16,7 12,0   Calm   1014,4 74 -
03:01 16,7 12,0   Calm   1014,4 74 -
03:05 16,6 11,9   Calm   1014,4 74 -
03:11 16,7 12,0   Calm 3,2 1014,4 74 -
03:15 16,7 12,0 1,4 SW 1,6 1014,4 74 -
03:21 16,8 12,1   Calm 3,2 1014,1 74 -
03:25 16,7 12,0 3,2 SSE 3,2 1014,1 74 -
03:31 16,7 12,2 4,7 SW 6,4 1014,1 75 -
03:35 16,8 12,3 4,7 SSW 6,4 1014,1 75 -
03:40 16,8 12,3 4,7 SW 6,4 1014,1 75 -
03:46 16,8 12,3 6,4 SSW 8,0 1014,1 75 -
03:50 16,9 12,4 4,7 SW 11,3 1014,1 75 -
03:56 17,0 12,5   Calm 6,4 1014,1 75 -
04:00 17,1 12,6 4,7 SW 4,8 1014,1 75 -
04:06 17,1 12,4 1,4 SW 4,8 1014,1 74 -
04:10 17,0 12,5 4,7 SW 8,0 1014,1 75 -
04:16 16,9 12,4 4,7 SSW 4,8 1014,1 75 -
04:20 16,8 12,3 6,4 SW 8,0 1013,8 75 -
04:26 16,7 12,4 6,4 SW 6,4 1013,8 76 -
04:30 16,6 12,4 3,2 South 6,4 1013,8 76 -
04:36 16,6 12,6 7,9 SW 9,7 1013,8 77 -
04:40 16,6 12,6 3,2 SW 8,0 1013,8 77 -
04:46 16,6 12,6 3,2 SW 6,4 1014,1 77 -
04:50 16,7 12,6 4,7 SW 8,0 1013,8 77 -
04:56 16,7 12,6 6,4 SW 8,0 1013,8 77 -
05:00 16,7 12,6 4,7 SSW 11,3 1013,8 77 -
05:06 16,8 12,7 4,7 SW 6,4 1013,8 77 -
05:10 16,7 12,6 3,2 SW 8,0 1013,8 77 -
05:16 16,7 12,8 3,2 SSW 9,7 1013,8 78 -
05:20 16,7 12,8 3,2 SW 6,4 1013,8 78 -
05:26 16,7 12,8 3,2 South 4,8 1013,8 78 -
05:30 16,7 12,8 6,4 SW 8,0 1013,8 78 -
05:36 16,7 12,8 1,4 SW 3,2 1014,1 78 -
05:40 16,7 13,0 3,2 SSW 3,2 1014,1 79 -
05:46 16,7 13,0 3,2 SSW 6,4 1014,1 79 -
05:50 16,7 13,0 4,7 SW 4,8 1014,1 79 -
05:56 16,7 13,0 9,7 SW 12,9 1013,8 79 -
06:00 16,7 13,0 11,1 SW 11,3 1013,8 79 -
06:06 16,7 13,2 9,7 SW 14,5 1013,8 80 -
06:10 16,7 13,2 4,7 SW 12,9 1013,8 80 -
06:16 16,7 13,2 7,9 SW 9,7 1014,1 80 -
06:20 16,8 13,3 4,7 WSW 16,1 1013,8 80 -
06:26 16,8 13,3 11,1 SW 16,1 1013,8 80 -
06:30 16,8 13,3 7,9 West 12,9 1013,8 80 -
06:36 16,8 13,3 9,7 SW 12,9 1013,8 80 -
06:40 16,8 13,3 4,7 SW 9,7 1013,8 80 -
06:46 16,8 13,3 7,9 WSW 9,7 1013,8 80 -
06:50 16,8 13,3 7,9 SW 11,3 1014,1 80 -
06:56 16,8 13,3 11,1 SW 11,3 1014,1 80 -
07:00 16,8 13,3 6,4 SW 11,3 1014,1 80 -
07:06 16,8 13,5 4,7 SW 11,3 1013,8 81 -
07:10 16,8 13,5 6,4 SW 9,7 1014,1 81 -
07:16 16,7 13,6 3,2 SW 6,4 1014,1 82 -
07:20 16,7 13,6 4,7 SW 4,8 1014,1 82 -
07:26 16,6 13,7 3,2 SW 6,4 1014,1 83 -
07:30 16,5 13,6 3,2 SW 4,8 1014,1 83 -
07:36 16,5 13,6 3,2 SW 6,4 1014,1 83 -
07:40 16,5 13,8 4,7 SSW 9,7 1014,1 84 -
07:46 16,5 13,6 6,4 SW 8,0 1014,1 83 -
07:50 16,5 13,6 6,4 SW 9,7 1014,1 83 -
07:56 16,6 13,7 7,9 SW 14,5 1014,1 83 -
08:00 16,6 13,7 9,7 SW 9,7 1014,1 83 -
08:06 16,7 13,8 7,9 SSW 12,9 1013,8 83 -
08:10 16,7 13,8 7,9 SW 9,7 1014,1 83 -
08:16 16,7 13,8 7,9 SSW 12,9 1014,1 83 -
08:20 16,7 14,0 9,7 SSW 11,3 1014,1 84 -
08:26 16,7 14,2 1,4 SW 8,0 1014,1 85 -
08:30 16,7 14,2 6,4 SSW 11,3 1014,1 85 -
08:36 16,7 14,2 3,2 SW 11,3 1014,1 85 -
08:40 16,7 14,2 4,7 West 9,7 1014,1 85 -
08:46 16,7 14,2 6,4 SW 8,0 1014,1 85 -
08:50 16,8 14,3 7,9 SW 14,5 1014,4 85 -
08:56 16,9 14,4 6,4 WSW 9,7 1014,1 85 -
09:00 16,9 14,4 7,9 SSW 11,3 1014,1 85 -
09:06 17,0 14,5 9,7 WSW 14,5 1014,1 85 -
09:10 17,1 14,4 9,7 SW 14,5 1014,1 84 -
09:16 17,2 14,5 13,0 SW 14,5 1014,1 84 -
09:20 17,3 14,6 9,7 SW 14,5 1014,4 84 -
09:26 17,4 14,7 7,9 SW 14,5 1014,4 84 -
09:30 17,5 14,6 11,1 SW 16,1 1014,4 83 -
09:36 17,6 14,7 13,0 WSW 19,3 1014,1 83 -
09:40 17,6 14,7 13,0 SSW 17,7 1014,1 83 -
09:46 17,6 14,9 9,7 WSW 16,1 1014,1 84 -
09:50 17,6 14,7 7,9 WSW 16,1 1014,1 83 -
09:56 17,7 15,0 9,7 SW 12,9 1014,1 84 -
10:00 17,7 14,8 11,1 WSW 17,7 1014,1 83 -
10:06 17,9 15,0 11,1 SW 14,5 1013,8 83 -
10:10 18,1 15,2 11,1 SW 17,7 1014,1 83 -
10:16 18,2 15,1 7,9 SW 19,3 1014,1 82 -
10:20 18,2 15,1 9,7 SSW 17,7 1014,1 82 -
10:26 18,3 15,2 9,7 SSW 14,5 1014,1 82 -
10:30 18,3 15,0 16,3 SW 20,9 1013,8 81 -
10:36 18,4 15,1 7,9 SW 19,3 1014,1 81 -
10:40 18,6 15,3 13,0 WSW 17,7 1014,1 81 -
10:46 18,7 15,4 19,5 SW 19,3 1014,1 81 -
10:51 19,0 15,5 14,3 West 16,1 1014,1 80 -
10:55 19,2 15,5 7,9 SSW 19,3 1014,1 79 -
11:01 19,3 15,4 16,3 SW 19,3 1014,1 78 -
11:05 19,5 15,6 17,7 SSW 24,1 1014,1 78 -
11:11 19,6 15,5 16,3 SW 19,3 1014,1 77 -
11:15 19,8 15,7 16,3 WSW 24,1 1014,1 77 -
11:21 19,8 15,4 24,1 SSW 25,7 1014,1 76 -
11:25 19,9 15,5 20,9 WSW 29,0 1014,1 76 -
11:31 20,0 15,4 20,9 SW 30,6 1014,1 75 -
11:35 20,0 15,6 16,3 SW 22,5 1014,1 76 -
11:41 20,0 15,6 16,3 SW 22,5 1014,1 76 -
11:45 20,0 15,6 11,1 West 25,7 1014,1 76 -
11:51 20,1 15,7 24,1 SW 24,1 1014,1 76 -
11:55 20,1 15,5 16,3 SSW 24,1 1014,1 75 -
12:01 20,2 15,8 9,7 West 24,1 1014,1 76 -
12:05 20,2 15,6 17,7 WSW 22,5 1013,8 75 -
12:11 20,3 15,7 19,5 WSW 24,1 1013,8 75 -
12:15 20,3 15,7 13,0 SW 29,0 1014,1 75 -
12:21 20,2 15,6 16,3 SSW 22,5 1014,1 75 -
12:25 20,3 15,7 19,5 WSW 27,4 1014,1 75 -
12:31 20,5 15,7 16,3 WSW 24,1 1013,8 74 -
12:35 20,5 15,7 24,1 WSW 27,4 1013,8 74 -
12:41 20,7 15,7 17,7 SW 25,7 1013,4 73 -
12:45 20,8 15,8 16,3 WSW 25,7 1013,8 73 -
12:51 20,9 15,9 4,7 WSW 14,5 1013,8 73 -
12:55 21,1 15,9 7,9 WSW 20,9 1013,8 72 -
13:01 21,3 15,8 9,7 West 24,1 1013,4 71 -
13:05 21,2 15,7 14,3 SW 24,1 1013,4 71 -
13:11 21,3 15,8 13,0 West 17,7 1013,4 71 -
13:15 21,5 15,8 14,3 WSW 19,3 1013,4 70 -
13:21 21,7 16,0 9,7 SW 16,1 1013,4 70 -
13:25 21,9 16,0 16,3 SW 20,9 1013,1 69 -
13:31 22,1 15,9 13,0 SW 24,1 1013,1 68 -
13:35 22,2 16,0 13,0 SW 22,5 1013,1 68 -
13:41 22,6 16,2 24,1 WSW 27,4 1013,1 67 -
13:45 22,7 16,0 19,5 SSW 24,1 1013,1 66 -
13:51 22,8 16,1 13,0 SSW 22,5 1013,1 66 -
13:55 23,1 16,2 20,9 SW 25,7 1012,8 65 -
14:01 23,2 16,0 9,7 WSW 16,1 1012,8 64 -
14:05 23,3 16,1 11,1 West 27,4 1012,8 64 -
14:11 23,5 16,0 16,3 WSW 25,7 1012,8 63 -
14:15 23,7 16,2 9,7 West 19,3 1012,8 63 -
14:21 24,2 16,5 7,9 SSW 16,1 1012,8 62 -
14:25 24,4 16,4 7,9 WNW 29,0 1012,8 61 -
14:31 24,4 16,4 11,1 SW 24,1 1012,8 61 -
14:35 24,5 16,2 19,5 WSW 32,2 1012,8 60 -
14:41 24,5 16,2 22,7 SW 24,1 1012,8 60 -
14:45 24,5 16,2 22,7 SW 24,1 1012,8 60 -
14:51 24,6 16,3 11,1 SW 19,3 1012,8 60 -
14:55 24,6 16,3 14,3 WSW 22,5 1012,4 60 -
15:01 24,6 16,3 9,7 WNW 19,3 1012,4 60 -
15:05 24,7 16,4 11,1 SW 17,7 1012,8 60 -
15:11 24,4 16,4 13,0 WSW 20,9 1012,4 61 -
15:15 24,4 16,4 16,3 West 24,1 1012,4 61 -
15:21 24,3 16,3 14,3 West 20,9 1012,4 61 -
15:25 24,3 16,3 14,3 WSW 24,1 1012,4 61 -
15:31 24,3 16,6 9,7 West 17,7 1012,4 62 -
15:35 24,3 16,6 16,3 West 24,1 1012,4 62 -
15:41 24,3 16,8 14,3 South 17,7 1012,4 63 -
15:45 24,4 16,6 17,7 WSW 17,7 1012,4 62 -
15:51 24,5 17,0 9,7 West 14,5 1012,4 63 -
15:55 24,6 16,8 9,7 WNW 19,3 1012,4 62 -
16:01 24,8 16,8 9,7 WSW 22,5 1012,4 61 -
16:05 25,0 17,2 14,3 West 22,5 1012,4 62 -
16:11 24,9 16,9 6,4 SW 24,1 1012,4 61 -
16:15 25,0 17,0 11,1 WSW 24,1 1012,1 61 -
16:21 25,0 17,0 13,0 SW 14,5 1012,4 61 -
16:25 25,1 17,0 13,0 WSW 19,3 1012,4 61 -
16:31 25,1 17,0 7,9 WSW 12,9 1012,1 61 -
16:35 25,2 17,1 11,1 WSW 19,3 1012,1 61 -
16:41 25,1 17,0 11,1 WSW 16,1 1012,1 61 -
16:45 25,1 17,0 11,1 SSW 22,5 1012,1 61 -
16:52 25,2 17,1 9,7 SSW 11,3 1012,1 61 -
16:56 25,2 17,1 11,1 WNW 16,1 1012,1 61 -
17:00 25,3 17,0 7,9 West 12,9 1011,7 60 -
17:06 25,4 17,1 11,1 WSW 17,7 1011,7 60 -
17:10 25,6 17,3 7,9 WSW 16,1 1012,1 60 -
17:16 25,6 17,3 11,1 West 20,9 1012,1 60 -
17:20 25,5 17,2 17,7 West 27,4 1012,1 60 -
17:26 25,6 17,3 9,7 WSW 17,7 1012,1 60 -
17:30 25,7 17,1 19,5 SW 24,1 1012,1 59 -
17:36 26,0 17,1 9,7 SW 14,5 1011,7 58 -
17:40 26,0 16,8 6,4 South 29,0 1011,7 57 -
17:46 26,0 16,8 16,3 WSW 25,7 1011,7 57 -
17:50 25,9 16,7 11,1 West 24,1 1011,7 57 -
17:56 26,1 16,9 25,9 SW 25,7 1011,7 57 -
18:00 26,1 16,9 13,0 WNW 29,0 1011,7 57 -
18:06 26,2 17,0 17,7 WSW 32,2 1011,7 57 -
18:10 26,1 17,2 13,0 WSW 22,5 1011,7 58 -
18:16 25,9 17,0 19,5 WSW 30,6 1011,7 58 -
18:20 25,9 17,3 13,0 WSW 20,9 1011,7 59 -
18:26 25,8 17,2 11,1 West 25,7 1011,7 59 -
18:30 25,7 17,1 19,5 SW 32,2 1011,7 59 -
18:36 25,6 17,3 6,4 WSW 20,9 1011,7 60 -
18:40 25,6 17,3 7,9 West 29,0 1011,7 60 -
18:46 25,4 17,3 24,1 WSW 25,7 1011,7 61 -
18:50 25,3 17,2 11,1 WSW 19,3 1011,7 61 -
18:56 25,3 17,5 11,1 SW 20,9 1011,7 62 -
19:00 25,2 17,4 14,3 SW 19,3 1011,7 62 -
19:06 25,1 17,6 22,7 SW 22,5 1011,7 63 -
19:10 25,0 17,5 13,0 WNW 24,1 1011,7 63 -
19:16 24,9 17,6 6,4 West 17,7 1011,4 64 -
19:20 24,9 17,6 19,5 SW 24,1 1011,4 64 -
19:26 24,8 17,5 11,1 WSW 22,5 1011,4 64 -
19:30 24,8 17,8 17,7 WSW 27,4 1011,4 65 -
19:36 24,7 17,7 6,4 NNW 17,7 1011,4 65 -
19:40 24,7 17,7 20,9 West 22,5 1011,4 65 -
19:46 24,6 17,8 7,9 West 19,3 1011,4 66 -
19:50 24,6 17,8 13,0 SW 17,7 1011,4 66 -
19:56 24,6 17,8 17,7 SW 17,7 1011,4 66 -
20:00 24,5 18,0 14,3 West 22,5 1011,4 67 -
20:06 24,4 17,9 19,5 West 24,1 1011,4 67 -
20:10 24,3 17,8 22,7 WSW 25,7 1011,7 67 -
20:16 24,2 17,9 4,7 WSW 27,4 1011,4 68 -
20:20 24,2 17,9 7,9 West 16,1 1011,4 68 -
20:26 24,1 18,1 3,2 NW 19,3 1011,4 69 -
20:30 24,0 18,0 4,7 West 17,7 1011,4 69 -
20:36 23,9 18,1 17,7 West 24,1 1011,4 70 -
20:40 23,8 18,0 4,7 WNW 11,3 1011,4 70 -
20:46 23,8 18,2 6,4 NW 20,9 1011,4 71 -
20:50 23,7 18,1 7,9 WNW 19,3 1011,4 71 -
20:56 23,7 18,1 9,7 West 17,7 1011,4 71 -
21:00 23,7 18,4 11,1 WSW 19,3 1011,7 72 -
21:06 23,6 18,3 14,3 West 17,7 1011,7 72 -
21:10 23,6 18,5 6,4 SW 17,7 1011,7 73 -
21:16 23,4 18,3 3,2 WSW 11,3 1011,7 73 -
21:20 23,4 18,3 14,3 West 16,1 1011,7 73 -
21:26 23,3 18,4 7,9 SW 16,1 1011,7 74 -
21:30 23,3 18,4 9,7 WSW 9,7 1012,1 74 -
21:36 23,2 18,5 13,0 WSW 17,7 1012,1 75 -
21:40 23,1 18,4 11,1 West 16,1 1012,1 75 -
21:46 23,1 18,6 11,1 West 17,7 1012,1 76 -
21:50 23,0 18,5 3,2 WNW 9,7 1012,1 76 -
21:56 22,9 18,4 6,4 West 14,5 1012,1 76 -
22:00 22,9 18,7 9,7 West 27,4 1012,1 77 -
22:06 22,8 18,6 19,5 SW 19,3 1012,1 77 -
22:10 22,7 18,5 11,1 West 20,9 1012,1 77 -
22:16 22,6 18,6 9,7 WSW 17,7 1012,1 78 -
22:20 22,6 18,6 9,7 WSW 20,9 1012,1 78 -
22:26 22,4 18,4 11,1 West 14,5 1012,1 78 -
22:30 22,4 18,4 7,9 SW 12,9 1012,1 78 -
22:36 22,3 18,5 13,0 WSW 17,7 1012,1 79 -
22:40 22,3 18,5 19,5 West 27,4 1012,1 79 -
22:46 22,2 18,4 1,4 West 16,1 1012,1 79 -
22:50 22,2 18,4 16,3 West 17,7 1012,1 79 -
22:56 22,1 18,3 7,9 West 14,5 1012,1 79 -
23:00 22,1 18,3 7,9 WNW 14,5 1012,1 79 -
Daily Summary for Saturday 17 August 2019
Time Temp. ( °C ) Dew pt. ( °C ) Wind ( km/h ) from Gust ( km/h ) Pressure ( hPa ) Humid.( % ) Rainrate ( cm )
High26,2 18,7 25,9 SW ( 944/2544 ) 32,2 1014,4 85 -
Average20,4 15,1 9,2 SW #94/277 14,8 1013,2 72 -
Low15,9 11,4 -   0,0 1011,4 57 -
Daily Tabular details for Saturday 17 August 2019
Time Temp. ( °C ) Dew pt. ( °C ) Wind ( km/h ) from Gust ( km/h ) Pressure ( hPa ) Humid.( % ) Rainrate ( cm )
00:00 18,4 12,2   Calm   1014,4 67 -
00:06 18,3 11,8   Calm   1014,4 66 -
00:10 18,1 11,9   Calm   1014,4 67 -
00:16 17,7 11,9   Calm   1014,4 69 -
00:20 17,6 12,1   Calm   1014,1 70 -
00:26 17,6 11,8   Calm   1014,1 69 -
00:30 17,5 11,7   Calm   1014,1 69 -
00:36 17,3 11,8   Calm   1014,1 70 -
00:40 17,2 11,9   Calm   1014,1 71 -
00:46 17,0 11,7   Calm   1014,4 71 -
00:50 16,9 11,8   Calm   1014,4 72 -
00:56 16,7 11,8   Calm   1014,4 73 -
01:00 16,7 12,0   Calm   1014,4 74 -
01:06 16,7 12,0   Calm   1014,4 74 -
01:10 16,8 11,9   Calm   1014,4 73 -
01:16 16,9 12,0   Calm 1,6 1014,1 73 -
01:20 16,9 12,0   Calm   1014,1 73 -
01:27 16,8 11,7   Calm   1014,4 72 -
01:31 16,6 11,7   Calm   1014,4 73 -
01:35 16,4 11,5   Calm   1014,4 73 -
01:41 16,3 11,5   Calm 1,6 1014,1 73 -
01:45 16,2 11,4   Calm   1014,4 73 -
01:51 16,1 11,5   Calm   1014,4 74 -
01:55 16,0 11,4   Calm   1014,1 74 -
02:01 15,9 11,5   Calm   1014,1 75 -
02:05 15,9 11,5   Calm   1014,1 75 -
02:11 15,9 11,5   Calm   1014,1 75 -
02:15 15,9 11,5   Calm   1014,1 75 -
02:21 15,9 11,5   Calm   1014,4 75 -
02:25 16,0 11,8   Calm   1014,4 76 -
02:31 16,2 12,0   Calm   1014,4 76 -
02:35 16,4 12,0   Calm 1,6 1014,4 75 -
02:41 16,6 11,9 3,2 SE 4,8 1014,1 74 -
02:45 16,7 12,0 1,4 ESE 1,6 1014,1 74 -
02:51 16,7 12,0   Calm 1,6 1014,1 74 -
02:55 16,7 12,0   Calm   1014,4 74 -
03:01 16,7 12,0   Calm   1014,4 74 -
03:05 16,6 11,9   Calm   1014,4 74 -
03:11 16,7 12,0   Calm 3,2 1014,4 74 -
03:15 16,7 12,0 1,4 SW 1,6 1014,4 74 -
03:21 16,8 12,1   Calm 3,2 1014,1 74 -
03:25 16,7 12,0 3,2 SSE 3,2 1014,1 74 -
03:31 16,7 12,2 4,7 SW 6,4 1014,1 75 -
03:35 16,8 12,3 4,7 SSW 6,4 1014,1 75 -
03:40 16,8 12,3 4,7 SW 6,4 1014,1 75 -
03:46 16,8 12,3 6,4 SSW 8,0 1014,1 75 -
03:50 16,9 12,4 4,7 SW 11,3 1014,1 75 -
03:56 17,0 12,5   Calm 6,4 1014,1 75 -
04:00 17,1 12,6 4,7 SW 4,8 1014,1 75 -
04:06 17,1 12,4 1,4 SW 4,8 1014,1 74 -
04:10 17,0 12,5 4,7 SW 8,0 1014,1 75 -
04:16 16,9 12,4 4,7 SSW 4,8 1014,1 75 -
04:20 16,8 12,3 6,4 SW 8,0 1013,8 75 -
04:26 16,7 12,4 6,4 SW 6,4 1013,8 76 -
04:30 16,6 12,4 3,2 South 6,4 1013,8 76 -
04:36 16,6 12,6 7,9 SW 9,7 1013,8 77 -
04:40 16,6 12,6 3,2 SW 8,0 1013,8 77 -
04:46 16,6 12,6 3,2 SW 6,4 1014,1 77 -
04:50 16,7 12,6 4,7 SW 8,0 1013,8 77 -
04:56 16,7 12,6 6,4 SW 8,0 1013,8 77 -
05:00 16,7 12,6 4,7 SSW 11,3 1013,8 77 -
05:06 16,8 12,7 4,7 SW 6,4 1013,8 77 -
05:10 16,7 12,6 3,2 SW 8,0 1013,8 77 -
05:16 16,7 12,8 3,2 SSW 9,7 1013,8 78 -
05:20 16,7 12,8 3,2 SW 6,4 1013,8 78 -
05:26 16,7 12,8 3,2 South 4,8 1013,8 78 -
05:30 16,7 12,8 6,4 SW 8,0 1013,8 78 -
05:36 16,7 12,8 1,4 SW 3,2 1014,1 78 -
05:40 16,7 13,0 3,2 SSW 3,2 1014,1 79 -
05:46 16,7 13,0 3,2 SSW 6,4 1014,1 79 -
05:50 16,7 13,0 4,7 SW 4,8 1014,1 79 -
05:56 16,7 13,0 9,7 SW 12,9 1013,8 79 -
06:00 16,7 13,0 11,1 SW 11,3 1013,8 79 -
06:06 16,7 13,2 9,7 SW 14,5 1013,8 80 -
06:10 16,7 13,2 4,7 SW 12,9 1013,8 80 -
06:16 16,7 13,2 7,9 SW 9,7 1014,1 80 -
06:20 16,8 13,3 4,7 WSW 16,1 1013,8 80 -
06:26 16,8 13,3 11,1 SW 16,1 1013,8 80 -
06:30 16,8 13,3 7,9 West 12,9 1013,8 80 -
06:36 16,8 13,3 9,7 SW 12,9 1013,8 80 -
06:40 16,8 13,3 4,7 SW 9,7 1013,8 80 -
06:46 16,8 13,3 7,9 WSW 9,7 1013,8 80 -
06:50 16,8 13,3 7,9 SW 11,3 1014,1 80 -
06:56 16,8 13,3 11,1 SW 11,3 1014,1 80 -
07:00 16,8 13,3 6,4 SW 11,3 1014,1 80 -
07:06 16,8 13,5 4,7 SW 11,3 1013,8 81 -
07:10 16,8 13,5 6,4 SW 9,7 1014,1 81 -
07:16 16,7 13,6 3,2 SW 6,4 1014,1 82 -
07:20 16,7 13,6 4,7 SW 4,8 1014,1 82 -
07:26 16,6 13,7 3,2 SW 6,4 1014,1 83 -
07:30 16,5 13,6 3,2 SW 4,8 1014,1 83 -
07:36 16,5 13,6 3,2 SW 6,4 1014,1 83 -
07:40 16,5 13,8 4,7 SSW 9,7 1014,1 84 -
07:46 16,5 13,6 6,4 SW 8,0 1014,1 83 -
07:50 16,5 13,6 6,4 SW 9,7 1014,1 83 -
07:56 16,6 13,7 7,9 SW 14,5 1014,1 83 -
08:00 16,6 13,7 9,7 SW 9,7 1014,1 83 -
08:06 16,7 13,8 7,9 SSW 12,9 1013,8 83 -
08:10 16,7 13,8 7,9 SW 9,7 1014,1 83 -
08:16 16,7 13,8 7,9 SSW 12,9 1014,1 83 -
08:20 16,7 14,0 9,7 SSW 11,3 1014,1 84 -
08:26 16,7 14,2 1,4 SW 8,0 1014,1 85 -
08:30 16,7 14,2 6,4 SSW 11,3 1014,1 85 -
08:36 16,7 14,2 3,2 SW 11,3 1014,1 85 -
08:40 16,7 14,2 4,7 West 9,7 1014,1 85 -
08:46 16,7 14,2 6,4 SW 8,0 1014,1 85 -
08:50 16,8 14,3 7,9 SW 14,5 1014,4 85 -
08:56 16,9 14,4 6,4 WSW 9,7 1014,1 85 -
09:00 16,9 14,4 7,9 SSW 11,3 1014,1 85 -
09:06 17,0 14,5 9,7 WSW 14,5 1014,1 85 -
09:10 17,1 14,4 9,7 SW 14,5 1014,1 84 -
09:16 17,2 14,5 13,0 SW 14,5 1014,1 84 -
09:20 17,3 14,6 9,7 SW 14,5 1014,4 84 -
09:26 17,4 14,7 7,9 SW 14,5 1014,4 84 -
09:30 17,5 14,6 11,1 SW 16,1 1014,4 83 -
09:36 17,6 14,7 13,0 WSW 19,3 1014,1 83 -
09:40 17,6 14,7 13,0 SSW 17,7 1014,1 83 -
09:46 17,6 14,9 9,7 WSW 16,1 1014,1 84 -
09:50 17,6 14,7 7,9 WSW 16,1 1014,1 83 -
09:56 17,7 15,0 9,7 SW 12,9 1014,1 84 -
10:00 17,7 14,8 11,1 WSW 17,7 1014,1 83 -
10:06 17,9 15,0 11,1 SW 14,5 1013,8 83 -
10:10 18,1 15,2 11,1 SW 17,7 1014,1 83 -
10:16 18,2 15,1 7,9 SW 19,3 1014,1 82 -
10:20 18,2 15,1 9,7 SSW 17,7 1014,1 82 -
10:26 18,3 15,2 9,7 SSW 14,5 1014,1 82 -
10:30 18,3 15,0 16,3 SW 20,9 1013,8 81 -
10:36 18,4 15,1 7,9 SW 19,3 1014,1 81 -
10:40 18,6 15,3 13,0 WSW 17,7 1014,1 81 -
10:46 18,7 15,4 19,5 SW 19,3 1014,1 81 -
10:51 19,0 15,5 14,3 West 16,1 1014,1 80 -
10:55 19,2 15,5 7,9 SSW 19,3 1014,1 79 -
11:01 19,3 15,4 16,3 SW 19,3 1014,1 78 -
11:05 19,5 15,6 17,7 SSW 24,1 1014,1 78 -
11:11 19,6 15,5 16,3 SW 19,3 1014,1 77 -
11:15 19,8 15,7 16,3 WSW 24,1 1014,1 77 -
11:21 19,8 15,4 24,1 SSW 25,7 1014,1 76 -
11:25 19,9 15,5 20,9 WSW 29,0 1014,1 76 -
11:31 20,0 15,4 20,9 SW 30,6 1014,1 75 -
11:35 20,0 15,6 16,3 SW 22,5 1014,1 76 -
11:41 20,0 15,6 16,3 SW 22,5 1014,1 76 -
11:45 20,0 15,6 11,1 West 25,7 1014,1 76 -
11:51 20,1 15,7 24,1 SW 24,1 1014,1 76 -
11:55 20,1 15,5 16,3 SSW 24,1 1014,1 75 -
12:01 20,2 15,8 9,7 West 24,1 1014,1 76 -
12:05 20,2 15,6 17,7 WSW 22,5 1013,8 75 -
12:11 20,3 15,7 19,5 WSW 24,1 1013,8 75 -
12:15 20,3 15,7 13,0 SW 29,0 1014,1 75 -
12:21 20,2 15,6 16,3 SSW 22,5 1014,1 75 -
12:25 20,3 15,7 19,5 WSW 27,4 1014,1 75 -
12:31 20,5 15,7 16,3 WSW 24,1 1013,8 74 -
12:35 20,5 15,7 24,1 WSW 27,4 1013,8 74 -
12:41 20,7 15,7 17,7 SW 25,7 1013,4 73 -
12:45 20,8 15,8 16,3 WSW 25,7 1013,8 73 -
12:51 20,9 15,9 4,7 WSW 14,5 1013,8 73 -
12:55 21,1 15,9 7,9 WSW 20,9 1013,8 72 -
13:01 21,3 15,8 9,7 West 24,1 1013,4 71 -
13:05 21,2 15,7 14,3 SW 24,1 1013,4 71 -
13:11 21,3 15,8 13,0 West 17,7 1013,4 71 -
13:15 21,5 15,8 14,3 WSW 19,3 1013,4 70 -
13:21 21,7 16,0 9,7 SW 16,1 1013,4 70 -
13:25 21,9 16,0 16,3 SW 20,9 1013,1 69 -
13:31 22,1 15,9 13,0 SW 24,1 1013,1 68 -
13:35 22,2 16,0 13,0 SW 22,5 1013,1 68 -
13:41 22,6 16,2 24,1 WSW 27,4 1013,1 67 -
13:45 22,7 16,0 19,5 SSW 24,1 1013,1 66 -
13:51 22,8 16,1 13,0 SSW 22,5 1013,1 66 -
13:55 23,1 16,2 20,9 SW 25,7 1012,8 65 -
14:01 23,2 16,0 9,7 WSW 16,1 1012,8 64 -
14:05 23,3 16,1 11,1 West 27,4 1012,8 64 -
14:11 23,5 16,0 16,3 WSW 25,7 1012,8 63 -
14:15 23,7 16,2 9,7 West 19,3 1012,8 63 -
14:21 24,2 16,5 7,9 SSW 16,1 1012,8 62 -
14:25 24,4 16,4 7,9 WNW 29,0 1012,8 61 -
14:31 24,4 16,4 11,1 SW 24,1 1012,8 61 -
14:35 24,5 16,2 19,5 WSW 32,2 1012,8 60 -
14:41 24,5 16,2 22,7 SW 24,1 1012,8 60 -
14:45 24,5 16,2 22,7 SW 24,1 1012,8 60 -
14:51 24,6 16,3 11,1 SW 19,3 1012,8 60 -
14:55 24,6 16,3 14,3 WSW 22,5 1012,4 60 -
15:01 24,6 16,3 9,7 WNW 19,3 1012,4 60 -
15:05 24,7 16,4 11,1 SW 17,7 1012,8 60 -
15:11 24,4 16,4 13,0 WSW 20,9 1012,4 61 -
15:15 24,4 16,4 16,3 West 24,1 1012,4 61 -
15:21 24,3 16,3 14,3 West 20,9 1012,4 61 -
15:25 24,3 16,3 14,3 WSW 24,1 1012,4 61 -
15:31 24,3 16,6 9,7 West 17,7 1012,4 62 -
15:35 24,3 16,6 16,3 West 24,1 1012,4 62 -
15:41 24,3 16,8 14,3 South 17,7 1012,4 63 -
15:45 24,4 16,6 17,7 WSW 17,7 1012,4 62 -
15:51 24,5 17,0 9,7 West 14,5 1012,4 63 -
15:55 24,6 16,8 9,7 WNW 19,3 1012,4 62 -
16:01 24,8 16,8 9,7 WSW 22,5 1012,4 61 -
16:05 25,0 17,2 14,3 West 22,5 1012,4 62 -
16:11 24,9 16,9 6,4 SW 24,1 1012,4 61 -
16:15 25,0 17,0 11,1 WSW 24,1 1012,1 61 -
16:21 25,0 17,0 13,0 SW 14,5 1012,4 61 -
16:25 25,1 17,0 13,0 WSW 19,3 1012,4 61 -
16:31 25,1 17,0 7,9 WSW 12,9 1012,1 61 -
16:35 25,2 17,1 11,1 WSW 19,3 1012,1 61 -
16:41 25,1 17,0 11,1 WSW 16,1 1012,1 61 -
16:45 25,1 17,0 11,1 SSW 22,5 1012,1 61 -
16:52 25,2 17,1 9,7 SSW 11,3 1012,1 61 -
16:56 25,2 17,1 11,1 WNW 16,1 1012,1 61 -
17:00 25,3 17,0 7,9 West 12,9 1011,7 60 -
17:06 25,4 17,1 11,1 WSW 17,7 1011,7 60 -
17:10 25,6 17,3 7,9 WSW 16,1 1012,1 60 -
17:16 25,6 17,3 11,1 West 20,9 1012,1 60 -
17:20 25,5 17,2 17,7 West 27,4 1012,1 60 -
17:26 25,6 17,3 9,7 WSW 17,7 1012,1 60 -
17:30 25,7 17,1 19,5 SW 24,1 1012,1 59 -
17:36 26,0 17,1 9,7 SW 14,5 1011,7 58 -
17:40 26,0 16,8 6,4 South 29,0 1011,7 57 -
17:46 26,0 16,8 16,3 WSW 25,7 1011,7 57 -
17:50 25,9 16,7 11,1 West 24,1 1011,7 57 -
17:56 26,1 16,9 25,9 SW 25,7 1011,7 57 -
18:00 26,1 16,9 13,0 WNW 29,0 1011,7 57 -
18:06 26,2 17,0 17,7 WSW 32,2 1011,7 57 -
18:10 26,1 17,2 13,0 WSW 22,5 1011,7 58 -
18:16 25,9 17,0 19,5 WSW 30,6 1011,7 58 -
18:20 25,9 17,3 13,0 WSW 20,9 1011,7 59 -
18:26 25,8 17,2 11,1 West 25,7 1011,7 59 -
18:30 25,7 17,1 19,5 SW 32,2 1011,7 59 -
18:36 25,6 17,3 6,4 WSW 20,9 1011,7 60 -
18:40 25,6 17,3 7,9 West 29,0 1011,7 60 -
18:46 25,4 17,3 24,1 WSW 25,7 1011,7 61 -
18:50 25,3 17,2 11,1 WSW 19,3 1011,7 61 -
18:56 25,3 17,5 11,1 SW 20,9 1011,7 62 -
19:00 25,2 17,4 14,3 SW 19,3 1011,7 62 -
19:06 25,1 17,6 22,7 SW 22,5 1011,7 63 -
19:10 25,0 17,5 13,0 WNW 24,1 1011,7 63 -
19:16 24,9 17,6 6,4 West 17,7 1011,4 64 -
19:20 24,9 17,6 19,5 SW 24,1 1011,4 64 -
19:26 24,8 17,5 11,1 WSW 22,5 1011,4 64 -
19:30 24,8 17,8 17,7 WSW 27,4 1011,4 65 -
19:36 24,7 17,7 6,4 NNW 17,7 1011,4 65 -
19:40 24,7 17,7 20,9 West 22,5 1011,4 65 -
19:46 24,6 17,8 7,9 West 19,3 1011,4 66 -
19:50 24,6 17,8 13,0 SW 17,7 1011,4 66 -
19:56 24,6 17,8 17,7 SW 17,7 1011,4 66 -
20:00 24,5 18,0 14,3 West 22,5 1011,4 67 -
20:06 24,4 17,9 19,5 West 24,1 1011,4 67 -
20:10 24,3 17,8 22,7 WSW 25,7 1011,7 67 -
20:16 24,2 17,9 4,7 WSW 27,4 1011,4 68 -
20:20 24,2 17,9 7,9 West 16,1 1011,4 68 -
20:26 24,1 18,1 3,2 NW 19,3 1011,4 69 -
20:30 24,0 18,0 4,7 West 17,7 1011,4 69 -
20:36 23,9 18,1 17,7 West 24,1 1011,4 70 -
20:40 23,8 18,0 4,7 WNW 11,3 1011,4 70 -
20:46 23,8 18,2 6,4 NW 20,9 1011,4 71 -
20:50 23,7 18,1 7,9 WNW 19,3 1011,4 71 -
20:56 23,7 18,1 9,7 West 17,7 1011,4 71 -
21:00 23,7 18,4 11,1 WSW 19,3 1011,7 72 -
21:06 23,6 18,3 14,3 West 17,7 1011,7 72 -
21:10 23,6 18,5 6,4 SW 17,7 1011,7 73 -
21:16 23,4 18,3 3,2 WSW 11,3 1011,7 73 -
21:20 23,4 18,3 14,3 West 16,1 1011,7 73 -
21:26 23,3 18,4 7,9 SW 16,1 1011,7 74 -
21:30 23,3 18,4 9,7 WSW 9,7 1012,1 74 -
21:36 23,2 18,5 13,0 WSW 17,7 1012,1 75 -
21:40 23,1 18,4 11,1 West 16,1 1012,1 75 -
21:46 23,1 18,6 11,1 West 17,7 1012,1 76 -
21:50 23,0 18,5 3,2 WNW 9,7 1012,1 76 -
21:56 22,9 18,4 6,4 West 14,5 1012,1 76 -
22:00 22,9 18,7 9,7 West 27,4 1012,1 77 -
22:06 22,8 18,6 19,5 SW 19,3 1012,1 77 -
22:10 22,7 18,5 11,1 West 20,9 1012,1 77 -
22:16 22,6 18,6 9,7 WSW 17,7 1012,1 78 -
22:20 22,6 18,6 9,7 WSW 20,9 1012,1 78 -
22:26 22,4 18,4 11,1 West 14,5 1012,1 78 -
22:30 22,4 18,4 7,9 SW 12,9 1012,1 78 -
22:36 22,3 18,5 13,0 WSW 17,7 1012,1 79 -
22:40 22,3 18,5 19,5 West 27,4 1012,1 79 -
22:46 22,2 18,4 1,4 West 16,1 1012,1 79 -
22:50 22,2 18,4 16,3 West 17,7 1012,1 79 -
22:56 22,1 18,3 7,9 West 14,5 1012,1 79 -
23:00 22,1 18,3 7,9 WNW 14,5 1012,1 79 -

Download your copy of this data-set  here

Our weather-data as stored at Weather Underground. Script developed by Jim McMurry. Adapted for the template by Leuven-Template.eu

You find our weather info also at:

Weather Underground

Equipment we use:

Weather-station
Davis Vue

Weather-program
Meteobridge

Weather-server
Raspberry PI 2 B+

Provider
1 and 1

Davis Vue

Meteobridge

Raspberry PI 2 B+

1 and 1